Lid_Strength_Index
5 8 9 8 7 8 8 8 9 7 6 7 7 7 6 5 4 5 4 4 3 4 3 2 2 1 1 0 -0 1 1 1 0 1 2 1 2 1 0 -0 -1 -1 -1 -1
7 8 6 6 6 7 7 8 8 7 6 6 7 8 6 5 5 5 4 4 4 4 3 2 2 2 1 1 0 -0 0 1 1 1 1 1 1 1 0 0 -0 -1 -1 -1
8 7 5 6 7 7 7 8 8 8 7 6 7 9 8 6 5 4 4 4 3 3 4 3 3 2 2 1 1 0 -0 0 1 0 0 0 0 0 1 1 1 0 -0 -1
7 5 6 7 7 7 9 7 7 8 8 11 7 12 8 7 6 5 4 4 4 4 3 3 3 3 2 2 1 1 -0 -1 0 0 1 1 2 3 1 1 1 0 -0 -0
7 7 7 8 7 6 8 6 7 7 8 9 9 10 9 6 7 6 5 4 4 4 4 4 3 2 2 2 2 1 1 1 1 1 0 1 1 1 1 1 1 1 0 -0
6 4 6 6 6 6 6 7 7 7 9 12 10 10 10 8 7 6 5 5 4 4 4 3 2 2 2 1 1 1 1 1 1 1 1 1 1 1 2 2 2 1 1 0
7 7 5 5 7 6 7 8 12 13 13 13 9 10 9 7 6 6 6 5 4 4 4 3 3 3 2 2 2 1 1 2 1 1 1 1 1 1 1 1 2 2 2 1
10 11 8 7 7 8 8 9 12 16 15 13 9 14 12 7 6 5 5 5 4 4 4 3 3 3 2 2 2 1 1 2 1 1 1 1 1 1 1 1 1 1 1 1
11 11 7 6 7 6 8 10 7 12 12 14 12 11 9 7 7 6 6 5 5 4 3 3 2 2 2 2 2 1 1 1 1 1 1 1 1 1 1 1 1 1 0 0
8 12 7 7 6 7 8 7 11 12 18 18 14 15 16 12 10 9 8 6 5 4 3 3 3 2 2 1 1 1 1 1 1 1 1 1 1 0 1 1 1 1 0 0
7 9 9 7 8 9 9 9 9 9 14 17 17 14 10 10 10 10 8 7 6 4 4 4 3 3 2 2 2 1 1 1 1 1 0 1 1 0 0 1 1 1 1 1
6 9 12 10 8 8 8 9 10 13 13 13 14 14 8 8 8 8 8 7 6 5 5 5 4 4 3 2 2 2 1 1 1 0 1 1 0 0 1 1 0 0 1 1
7 10 14 12 9 8 11 9 9 9 10 14 17 17 7 7 7 6 7 6 5 5 4 4 4 3 3 4 3 3 2 2 1 0 1 1 0 0 1 1 0 0 0 1
5 9 11 14 13 11 13 11 8 9 13 12 11 11 11 9 7 6 6 5 5 5 5 4 4 3 3 2 2 3 2 2 1 1 1 1 1 0 -0 -0 0 0 0 0
6 11 9 9 8 9 10 9 9 10 9 11 10 10 9 7 7 6 5 5 5 5 5 5 4 3 3 3 2 2 2 2 1 1 1 1 1 0 -0 -0 0 -0 0 0
6 11 9 11 9 8 9 9 9 9 9 9 9 9 6 5 5 5 5 5 6 5 4 4 3 3 3 3 2 2 2 1 1 1 1 1 1 1 1 -0 -0 0 0 0
8 10 12 14 10 10 12 9 9 8 8 8 10 8 6 6 6 6 5 5 5 4 4 4 4 4 3 2 1 2 1 1 1 1 1 1 1 1 1 0 0 0 0 1
8 9 11 14 11 17 9 6 7 8 7 7 7 6 6 5 5 5 4 4 4 4 3 3 2 2 2 1 1 1 1 1 1 1 1 1 1 1 1 1 1 1 0 0
6 8 12 15 14 11 9 8 8 8 9 6 7 6 5 5 5 5 4 3 3 3 3 2 2 2 2 1 1 1 1 1 1 2 1 1 1 1 1 1 1 1 1 1
6 7 10 12 17 16 11 7 5 6 11 6 6 6 6 5 9 8 4 3 3 2 2 2 2 2 2 1 1 2 2 2 2 1 1 1 1 1 1 1 1 0 1 1
10 10 13 13 14 12 7 6 5 11 12 6 5 5 6 7 6 4 3 3 2 2 2 2 2 2 2 1 1 3 2 3 2 1 1 1 1 1 1 1 1 1 1 1
12 11 12 11 14 16 5 6 9 8 5 5 5 5 5 4 4 3 3 3 3 3 3 2 3 3 2 1 1 2 2 1 1 1 1 1 1 1 1 1 1 1 1 2
12 9 11 11 10 6 5 5 4 4 5 5 4 4 4 4 4 4 4 3 3 3 3 2 3 3 2 1 1 2 2 1 1 1 2 1 1 1 1 1 2 2 2 2
8 7 10 10 8 7 5 5 4 4 4 4 3 4 4 4 4 4 4 4 3 3 3 2 3 3 3 1 2 1 1 1 1 2 2 1 2 2 1 1 1 2 2 2
7 7 8 8 6 5 5 4 4 4 3 3 3 3 4 4 4 4 4 3 3 3 3 3 3 3 3 2 2 1 1 1 2 2 2 2 1 2 2 1 1 2 1 1
5 6 9 9 5 6 6 4 3 4 4 4 4 4 3 4 4 4 4 3 3 3 3 4 3 3 2 2 2 1 1 1 1 2 2 2 2 2 2 2 2 5 5 5